Skip Page Navigation
NASA JPL Caltech
NASA Logo - Jet Propulsion Laboratory + View the NASA Portal
+ Near-Earth Object (NEO) Program
Search JPL
JPL Home Earth Solar System Stars & Galaxies Technology
JPL Solar System Dynamics
BODIES ORBITS EPHEMERIDES TOOLS PHYSICAL DATA DISCOVERY FAQ SITE MAP
JPL Small-Body Database Browser
Search: [ help ]  
(2004 HC39)
Classification: Apollo [NEO, PHA]          SPK-ID: 3180182
Ephemeris | Orbit Diagram | Orbital Elements | Physical Parameters | Close-Approach Data ]

[ hide orbit diagram ]
Orbit Diagram
Note: Make sure you have Java enabled on your browser to see the applet. This applet is provided as a 3D orbit visualization tool. The applet was implemented using 2-body methods, and hence should not be used for determining accurate long-term trajectories (over several years or decades) or planetary encounter circumstances. For accurate long-term ephemerides, please instead use our Horizons system.
Orbit Viewer

Additional Notes: the orbits shown in the applet are color coded. The planets are white lines, and the asteroid/comet is a blue line. The bright white line indicates the portion of the orbit that is above the ecliptic plane, and the darker portion is below the ecliptic plane. Likewise for the asteroid/comet orbit, the light blue indicates the portion above the ecliptic plane, and the dark blue the portion below the ecliptic plane.

Orbit Viewer applet originally written and kindly provided by Osamu Ajiki (AstroArts), and further modified by Ron Baalke (JPL).


Orbital Elements at Epoch 2456400.5 (2013-Apr-18.0) TDB
Reference: JPL 20 (heliocentric ecliptic J2000)
 Element Value Uncertainty (1-sigma)   Units 
e .5006725384096848 0.00043813  
a 1.812730403268277 0.0015355 AU
q .9051460708115372 2.75e-05 AU
i 14.66233148835262 0.0082141 deg
node 56.13805188435545 0.00075873 deg
peri 224.1691898316577 0.0016898 deg
M 222.4537833870235 1.6627 deg
tp 2456741.099811608295
(2014-Mar-24.59981161)
4.55 JED
period 891.4525982492071
2.44
1.1327
0.003101
d
yr
n .4038352692078434 0.00051312 deg/d
Q 2.720314735725017 0.0023043 AU
  Orbit Determination Parameters
   # obs. used (total)      126  
   data-arc span      20 days  
   first obs. used      2004-04-22  
   last obs. used      2004-05-12  
   planetary ephem.      DE405  
   SB-pert. ephem.      SB405-CPV-2  
   condition code      7  
   fit RMS      .58698  
   data source      ORB  
   producer      Otto Matic  
   solution date      2011-Oct-08 00:50:26  

Additional Information
 Earth MOID = .00796225 AU 
 T_jup = 3.859 
[ show covariance matrix ]

Ephemeris | Orbit Diagram | Orbital Elements | Physical Parameters | Close-Approach Data ]

Physical Parameter Table
Parameter Symbol Value Units Sigma Reference Notes
absolute magnitude H 21.47 mag .47801 20 autocmod 2.5a

[ show close-approach data ]
Ephemeris | Orbit Diagram | Orbital Elements | Physical Parameters | Close-Approach Data ]
ABOUT SSD CREDITS/AWARDS PRIVACY/COPYRIGHT GLOSSARY LINKS
FirstGov 2013-Jun-19 18:46 UT
(server date/time)  
NASA Home Page
Site Manager:   Donald K. Yeomans
Webmaster  Alan B. Chamberlin